Regional Weather Roundup
Issued by NWS

Home | Current Version | Previous Version | Text Only | Print | Product List | Glossary On
Versions: 1 2 3 4 5 6 7 8 9 10 11 12 13 14 15 16 17 18 19 20 21 22 23 24 25 26 27 28 29 30 31 32 33 34 35 36 37 38 39 40 41 42 43 44 45 46 47 48 49 50
286
ASUS43 KMKX 230921
RWRWI

WISCONSIN REGIONAL WEATHER ROUNDUP
NATIONAL WEATHER SERVICE MILWAUKEE/SULLIVAN WI
400 AM CDT TUE MAY 23 2017

NOTE: "FAIR" INDICATES FEW OR NO CLOUDS BELOW 12,000 FEET WITH NO
SIGNIFICANT WEATHER AND/OR OBSTRUCTIONS TO VISIBILITY.

WIZ001-002-006>008-014>016-023>028-231000-
NORTHWEST WISCONSIN

CITY           SKY/WX    TMP DP  RH WIND       PRES   REMARKS
SUPERIOR ARPT  NOT AVBL
ASHLAND        CLOUDY    46  45  96 CALM      29.82R
HAYWARD        MOCLDY    41  40  96 CALM      29.81S
SIREN          LGT RAIN  44  43  97 CALM      29.82R
CUMBERLAND     CLOUDY    45  43  93 NW3       29.81S
RICE LAKE      LGT RAIN  47  46  93 CALM      29.83R
CHETEK         RAIN      47  47 100 CALM      29.82R
LADYSMITH      LGT RAIN  46  44  95 CALM      29.83R
EAU CLAIRE     CLOUDY    50  47  89 CALM      29.79R
MENOMONIE      LGT RAIN  50  48  93 W7        29.81R
NEW RICHMOND   DRIZZLE   48  47  97 E3        29.81S
OSCEOLA        LGT RAIN  49  49 100 CALM      29.84S
$$

WIZ003>005-009-010-017-018-231000-
NORTH CENTRAL WISCONSIN

CITY           SKY/WX    TMP DP  RH WIND       PRES   REMARKS
MANITOWISH WTR CLOUDY    38  38 100 CALM      29.81S FOG
ARBOR VITAE    CLOUDY    42  40  96 CALM      29.81R
WOODRUFF       CLOUDY    42  40  96 CALM      29.81R
RHINELANDER    CLOUDY    45  43  93 NE3       29.81F
EAGLE RIVER    CLOUDY    40  40 100 CALM      29.81S FOG
LAND O LAKES   CLOUDY    40  40 100 CALM      29.83S
PHILLIPS       CLOUDY    40  40 100 CALM      29.80S
TOMAHAWK       CLOUDY    41  40  97 CALM      29.81S
MEDFORD        DRIZZLE   47  44  89 NE3       29.78F
MERRILL        RAIN      45  45 100 E3        29.80F
$$

WIZ029-030-035-036-043>047-231000-
CENTRAL WISCONSIN

CITY           SKY/WX    TMP DP  RH WIND       PRES   REMARKS
WAUSAU         LGT RAIN  47  46  97 E5        29.78F
MOSINEE        LGT RAIN  46  46 100 NE5       29.79F
MARSHFIELD     CLOUDY    48  46  93 NE9       29.75F
STEVENS POINT  LGT RAIN  47  47 100 NE9       29.78F
WAUPACA        CLOUDY    52  48  84 NE7       29.78F
WAUTOMA        CLOUDY    51  50  96 N7        29.76S
WISC RAPIDS    CLOUDY    51  48  89 E9G17     29.76F
CAMP DOUGLAS   FOG       45  45 100 CALM      29.75S VSB 1/2
$$

WIZ011>013-019>022-031-037>040-048>050-231000-
NORTHEAST WISCONSIN

CITY           SKY/WX    TMP DP  RH WIND       PRES   REMARKS
ANTIGO         CLOUDY    47  44  90 CALM      29.80F
SHAWANO        CLOUDY    52  46  81 NE8       29.79F
OCONTO           N/A     41  41  99 CALM      29.79F
STURGEON BAY   PTCLDY    48  44  86 E5        29.81F
GREEN BAY      CLOUDY    52  46  80 E8        29.78F
MANITOWOC      CLOUDY    51  46  83 CALM      29.81S
APPLETON       CLOUDY    52  43  71 E9        29.75F
CLINTONVILLE   LGT RAIN  50  45  81 NE3       29.78F
OSHKOSH        CLOUDY    57  54  89 E6        29.74F
$$

WIZ032>034-041-042-053>061-231000-
SOUTHWEST WISCONSIN

CITY           SKY/WX    TMP DP  RH WIND       PRES   REMARKS
LA CROSSE      CLOUDY    55  53  93 SE3       29.75F FOG
SPARTA         FOG       45  45 100 CALM      29.77R VSB 1/4
VIROQUA        CLOUDY    51  51 100 MISG      29.76F
BOSCOBEL       FOG       53  52  96 CALM      29.76F VSB 1/2
PRAIRIE DU CHI FOG       50  49  97 CALM      29.76S VSB 1
PLATTEVILLE    CLOUDY    55  55 100 SW10      29.77S
$$

WIZ056-057-062-063-064-067-068-231000-
SOUTH CENTRAL WISCONSIN

CITY           SKY/WX    TMP DP  RH WIND       PRES   REMARKS
REEDSBURG      CLOUDY    52  52 100 CALM      29.75S
BARABOO/DELLS  MOCLDY    50  48  95 CALM      29.76S FOG
LONE ROCK      CLOUDY    51  50  96 N3        29.76S FOG
MINERAL POINT  CLOUDY    55  55 100 S7        29.76S
MADISON        MOCLDY    54  54 100 S7        29.75F
MIDDLETON      MOCLDY    54  54 100 CALM      29.76S
WATERTOWN      CLOUDY    54  54 100 SE5       29.76F
MONROE         CLOUDY    52  52 100 S8        29.77F FOG
JANESVILLE     MOCLDY    55  55 100 S6        29.78S
$$

WIZ051-052-058>065-066-070>072-231000-
SOUTHEAST WISCONSIN

CITY           SKY/WX    TMP DP  RH WIND       PRES   REMARKS
MILWAUKEE      CLOUDY    59  55  87 SW8       29.79F
WAUKESHA       CLOUDY    54  52  94 S5        29.79F
MILWAUKEE/TIMM   N/A     55  52  88 SW6       29.79F
RACINE         CLOUDY    57  53  86 SW7       29.81F
KENOSHA        CLOUDY    59  53  80 S9        29.80F
FOND DU LAC    CLOUDY    56  52  86 E7        29.75F
SHEBOYGAN      CLOUDY    54  52  93 CALM      29.78F
WEST BEND      CLOUDY    54  54 100 S5        29.77F
JUNEAU         PTCLDY    54  53  97 SE6       29.77S
$$

LSZ147-162-231000-
LAKE SUPERIOR

STATION/POSITION TIME  TEMP    WIND        PRES    WAVE
                       AIR SEA DIR/SP/G            HT/PER
                 (UTC) (F)     (DEG/KT/KT) (MB)    (FT/S)
W MID LAKE BUOY  0850   41 37  250/  2/  2 1010.1F   0
DEVILS ISLAND    0900   45     320/  2/  3 1010.3R
PORT WING        0840   45      CALM  /  1 1009.8S
SAXON HARBOR     0840   47      CALM  /  1 1009.1S
$$

LMZ867-665-643>646-231000-
LAKE MICHIGAN

STATION/POSITION TIME  TEMP    WIND        PRES    WAVE
                       AIR SEA DIR/SP/G            HT/PER
                 (UTC) (F)     (DEG/KT/KT) (MB)    (FT/S)
CHAMBERS ISLAND  0830   41        CALM     1009.1F
N MID LAKE BUOY  0850   41 38  300/  2/  4 1010.8F   2/ 5
NORTHPORT PIER   0840   44     210/  1/  2 1009.5F
SISTER BAY       0806   43        CALM       N/A
KEWAUNEE LAKESHO 0854   48      50/  3/  4 1009.0F
SHEBOYGAN LAKESH 0900   49      30/  7/  7 1008.5F
PORT WASHINGTON  0840   52     170/  2/  2 1009.1F
ATWATER BUOY     0809   52     160/  6/  6 1009.1F
MILWAUKEE LAKESH 0900   58     220/  8/  9   N/A
S MID LAKE BUOY  0850   48 45  180/ 10/ 10 1009.9F   1/ 4
KENOSHA   LAKESH 0900   59     190/  6/ 11 1009.1
$$

TC  - TEMPERATURE IN CELSIUS
VSB - VISIBILITY IN STATUTE MILES
WCI - WIND CHILL INDEX
HX  - HEAT INDEX





USA.gov is the U.S. government's official web portal to all federal, state and local government web resources and services.